Sanford, FL

2:32 PM EDT on October 18, 2017 (GMT -0400)
Orlando Sanford

Weather History for KSFB - June, 2013

Change the Weather History Date:

Wednesday, June 19, 2013

  Actual Average Record
Temperature  
Mean Temperature 83 °F -  
Max Temperature 91 °F 91 °F 100 °F (1998)
Min Temperature 75 °F 70 °F 63 °F (1956)
Cooling Degree Days 18    
Growing Degree Days 33 (Base 50)    
Moisture  
Dew Point 73 °F    
Average Humidity 75    
Maximum Humidity 94    
Minimum Humidity 50    
Precipitation  
Precipitation 0.00 in - - ()
Sea Level Pressure  
Sea Level Pressure 30.01 in    
Wind  
Wind Speed 5 mph (SSW)    
Max Wind Speed 12 mph    
Max Gust Speed -    
Visibility 10 miles    
Events      
Averages and records for this station are not official NWS values.
T = Trace of Precipitation, MM = Missing Value Source: NWS Daily Summary

Daily Weather History Graph

Daily Weather History Graph

Search for Another Location

Airport or City:

Trip Planner

Search our weather history database for the weather conditions in past years. The results will help you decide how hot, cold, wet, or windy it might be!

Date:

Astronomy

Jun. 19, 2013 Rise Set
Actual Time 6:26 AM EDT 8:25 PM EDT
Civil Twilight 5:59 AM EDT 8:52 PM EDT
Nautical Twilight 5:27 AM EDT 9:25 PM EDT
Astronomical Twilight 4:52 AM EDT 10:00 PM EDT
Moon 4:29 PM EDT (6/19) 2:55 AM EDT (6/19)
Length of Visible Light 14h 52m
Length of Day
13h 58m
Waxing Gibbous, 80% of the Moon is Illuminated
Jun 19
Waxing Gibbous
Jun 23
Full
Jun 30
Last Quarter
Jul 8
New
Jul 15
First Quarter

Hourly Weather History & Observations

Time (EDT) Temp. Heat Index Dew Point Humidity Pressure Visibility Wind Dir Wind Speed Gust Speed Precip Events Conditions
12:53 AM 77.0 °F - 73.9 °F 90% 30.01 in 10.0 mi Calm Calm - N/A   Clear
1:53 AM 75.9 °F - 73.9 °F 94% 30.01 in 10.0 mi Calm Calm - N/A   Clear
2:53 AM 77.0 °F - 75.0 °F 94% 30.02 in 10.0 mi SW 4.6 mph - N/A   Partly Cloudy
3:53 AM 77.0 °F - 73.9 °F 90% 30.02 in 10.0 mi SW 6.9 mph - N/A   Mostly Cloudy
4:42 AM 77.0 °F - 75.2 °F 94% 30.03 in 10.0 mi South 8.1 mph - N/A   Mostly Cloudy
4:53 AM 77.0 °F - 73.9 °F 90% 30.02 in 10.0 mi SW 8.1 mph - N/A   Scattered Clouds
5:53 AM 75.0 °F - 73.0 °F 94% 30.01 in 10.0 mi Calm Calm - N/A   Clear
6:53 AM 75.0 °F - 73.0 °F 94% 30.01 in 10.0 mi South 4.6 mph - N/A   Clear
7:53 AM 77.0 °F - 73.9 °F 90% 30.02 in 10.0 mi South 4.6 mph - N/A   Clear
8:53 AM 80.1 °F 85.1 °F 75.0 °F 85% 30.04 in 10.0 mi SSW 8.1 mph - N/A   Clear
9:53 AM 82.9 °F 90.2 °F 75.0 °F 77% 30.04 in 10.0 mi SW 8.1 mph - N/A   Scattered Clouds
10:53 AM 86.0 °F 93.8 °F 73.9 °F 67% 30.05 in 10.0 mi SSW 3.5 mph - N/A   Scattered Clouds
11:53 AM 86.0 °F 93.8 °F 73.9 °F 67% 30.04 in 10.0 mi WSW 5.8 mph - N/A   Partly Cloudy
12:53 PM 88.0 °F 95.6 °F 73.0 °F 61% 30.03 in 10.0 mi WSW 3.5 mph - N/A   Scattered Clouds
1:53 PM 91.0 °F 97.6 °F 71.1 °F 52% 30.01 in 10.0 mi SW 6.9 mph - N/A   Scattered Clouds
2:53 PM 90.0 °F 96.4 °F 71.1 °F 54% 30.00 in 10.0 mi SW 4.6 mph - N/A   Mostly Cloudy
3:53 PM 86.0 °F 90.7 °F 70.0 °F 59% 29.98 in 10.0 mi SW 10.4 mph - N/A   Scattered Clouds
4:53 PM 89.1 °F 95.0 °F 71.1 °F 55% 29.96 in 10.0 mi West 8.1 mph - N/A   Clear
5:53 PM 90.0 °F 95.4 °F 70.0 °F 52% 29.97 in 10.0 mi WSW 5.8 mph - N/A   Clear
6:53 PM 89.1 °F 92.9 °F 68.0 °F 50% 29.98 in 10.0 mi West 6.9 mph - N/A   Clear
7:34 PM 84.2 °F 90.9 °F 73.4 °F 70% 29.99 in 10.0 mi SE 11.5 mph - N/A   Clear
7:53 PM 84.0 °F 90.2 °F 73.0 °F 69% 29.99 in 10.0 mi SSE 9.2 mph - N/A   Clear
8:53 PM 82.0 °F 87.4 °F 73.0 °F 74% 30.01 in 10.0 mi SSE 8.1 mph - N/A   Clear
9:53 PM 80.1 °F 84.2 °F 73.0 °F 79% 30.04 in 10.0 mi SSE 8.1 mph - N/A   Scattered Clouds
10:53 PM 79.0 °F - 70.0 °F 74% 30.04 in 10.0 mi South 6.9 mph - N/A   Clear
11:53 PM 78.1 °F - 70.0 °F 76% 30.05 in 10.0 mi SW 4.6 mph - N/A   Clear